Location: Eaton Estates
(41.3089°N, 82.0057°W)
Time: 12:39:16
(UTC+00:00)

SL-8 R/B - Pass Details

Date: 17 June 2021
Orbit: 656 x 667 km, 48.4° (Epoch: 26 July)

Event Time Altitude Azimuth Distance (km) Brightness Sun altitude
Rises 04:06:03 0° 298° (WNW) 2,990 7.8 -22.5°
Reaches altitude 10° 04:08:24 10° 298° (WNW) 2,074 6.9 -22.7°
Maximum altitude 04:13:11 81° 212° (SSW) 668 3.5 -23.0°
Enters shadow 04:13:38 72° 149° (SSE) 693 3.5 -23.0°
